Location: Unspecified
(47.5840°N, 122.3000°W)
Time: 10:39:08
(UTC+00:00)

ATLAS 3B R/B - Pass Details

Date: 09 December 2025
Orbit: 936 x 1258 km, 63.8° (Epoch: 21 January)

Event Time Altitude Azimuth Distance (km) Brightness Sun altitude
Exits shadow 12:09:13 24° 358° (N) 2,358 4.4 -35.4°
Maximum altitude 12:09:35 24° 2° (N) 2,354 4.5 -35.4°
Drops below altitude 10° 12:15:43 10° 54° (NE) 3,221 5.8 -34.3°
Sets 12:19:11 0° 68° (ENE) 4,157 6.7 -33.8°
